Regional Weather Roundup
Issued by NWS Sioux Falls, SD

Home | Current Version | Previous Version | Text Only | Print | Product List | Glossary On
Versions: 1 2 3 4 5 6 7 8 9 10 11 12 13 14 15 16 17 18 19 20 21 22 23 24 25 26 27 28 29 30 31 32 33 34 35 36 37 38 39 40 41 42 43 44 45 46 47 48 49 50
092
ASUS43 KFSD 280810
RWRFSD

WEATHER ROUNDUP FOR SE SOUTH DAKOTA/SW MINNESOTA/NW IOWA
NATIONAL WEATHER SERVICE SIOUX FALLS SD
300 AM CDT SAT MAY 28 2016

NOTE: "FAIR" INDICATES FEW OR NO CLOUDS BELOW 12,000 FEET WITH NO
SIGNIFICANT WEATHER AND OR OBSTRUCTIONS TO VISIBILITY.


SDZ038>040-050-052>070-280900-
SOUTHEAST SOUTH DAKOTA

CITY           SKY/WX    TMP DP  RH WIND       PRES   REMARKS
BROOKINGS      CLOUDY    60  58  92 NE3       29.75F
CHAMBERLAIN    CLOUDY    61  58  91 N8        29.78S
HURON          CLOUDY    57  56  96 N6        29.75F
MADISON        FAIR      57  57 100 N8        29.76S
MITCHELL       CLOUDY    61  58  90 N6        29.74F
SIOUX FALLS    LGT RAIN  63  58  83 NE6       29.72F
WINNER         PTSUNNY   58  54  86 NW5       29.80R
YANKTON        CLOUDY    61  57  88 NW6       29.71S
$$

MNZ071-072-080-081-089-090-097-098-280900-
SOUTHWEST MINNESOTA

CITY           SKY/WX    TMP DP  RH WIND       PRES   REMARKS
FAIRMONT       CLOUDY    64  61  88 SE3       29.73F
JACKSON        CLOUDY    64  61  88 SE3       29.74F
LUVERNE        LGT RAIN  63  55  77 CALM      29.73F
MARSHALL       CLOUDY    62  59  90 NE8       29.76F
MONTEVIDEO     CLOUDY    59  57  94 SE3       29.78F
PIPESTONE      CLOUDY    63  59  88 NE8       29.74F
REDWOOD FALLS  CLOUDY    60  57  89 N6        29.74F
TRACY          CLOUDY    62  62  98 NE7       29.75F FOG
WINDOM         MOCLDY    64  61  88 E8        29.73F
WORTHINGTON    TSTM      64  60  87 S22       29.73F
$$

IAZ001>003-012>014-020>022-031-032-NEZ013-014-SDZ071-280900-
NORTHWEST IOWA

CITY           SKY/WX    TMP DP  RH WIND       PRES   REMARKS
CHEROKEE       CLOUDY    63  63  99 CALM      29.72S
DENISON        CLOUDY    63  61  94 CALM      29.69S
ESTHERVILLE    CLOUDY    64  62  93 S3        29.73F
LE MARS        LGT RAIN  64  61  88 CALM      29.72S
ORANGE CITY    RAIN      63  61  94 CALM      29.72F
SHELDON        RAIN      63  61  94 S6        29.72S
SIOUX CITY     CLOUDY    64  61  90 NE6       29.68F
SPENCER        CLOUDY    65  62  90 S10       29.71F
STORM LAKE     CLOUDY    64  63  94 CALM      29.73S
$$

ABBREVIATIONS USED IN REMARKS
   TC - TEMPERATURE IN CELSIUS
  WCI - WIND CHILL INDEX
   HX - HEAT INDEX
  VSB - VISIBILITY





USA.gov is the U.S. government's official web portal to all federal, state and local government web resources and services.